OBJECT Y, 67270

Orbit data source: Space-Track

You're viewing an Uncataloged Satellite

Recently launched and/or uncataloged satellites may have evolving metadata. Metadata may include but not limited to: Owner, Maufacturer, Bus, Motor, and Mission.

OBJECT Y, 67270 is a satellite in SSO that was launched on Sun, 28 Dec 2025 UTC via a SOYUZ-2-1B launch vehicle from the Vostochny Cosmodrome (VOSTO). Unknown objects in Earth's orbit typically refer to objects detected orbiting the Earth but have not yet been identified or cataloged. These objects could be anything from previously untracked satellites, spent rocket stages, debris from satellite collisions, or even natural meteoroids temporarily captured by Earth's gravity.

Loading next visibility...
Identifier
67270, 2025-313Y
Orbit
SSO
Country
Flag of TBDTBD
Related business
Manufacturer
Sputniks
Mission
Operational Commercial Communications
Bus & Motor
CUBESAT 3U, Unknown motor
Mass
3 kg wet, 3 kg dry
Launch date (UTC)
2025-12-28 (6 months ago)
Launch vehicle
SOYUZ-2-1B
Launch site
Vostochny Cosmodrome (VOSTO)
Object type
Unknown
Shape & HBR
Box, 0.1 m
Radar Cross Section
0.035 m², Medium (>0.1 m² and < 1m²)

Expand to show TLE details & history
Last TLE update: 9 hours ago

TLE from 9 hours ago
0 OBJECT Y
1 67270U 25313Y   26171.46554992  .00007082  00000-0  29917-3 0  9995
2 67270  97.3937 246.1259 0013883 358.4363   1.6828 15.23471647 26458
Epoch: 2026-06-20T11:10Z
TLE epoch observation values (Epoch: 2026-06-20T11:10:23.513Z)
Latitude
-0.00002°
Longitude
169.84815°
Altitude
488.934 km
Speed
7.626 km/s
True Right ascension
16h 24m 30s
True Declination
0° 00' 00"
Sunlit
Object was in full shadow at epoch
Visualization orbit readout
Latitude
Unknown
Longitude
Unknown
Altitude
Unknown
Speed
Unknown
Apparent Right ascension
Unknown
Apparent Declination
Unknown
Sunlit
N/A
Visualization observer readout
Local Sidereal Time
07:17:35
Azimuth
Unknown
Elevation
Unknown
Doppler factor
Unknown
Orbital elements
Apogee altitude
501.878 km
Perigee altitude
482.801 km
Semi-major axis
6,870.476 km
Eccentricity
0.00139
Inclination
97.3937°
RAAN
246.1259°
Arg. of periapsis
358.4363°
True anomaly
1.68748°
Mean anomaly
1.6828°
Eccentric anomaly
1.68514°
Mean motion
3.81121 °/min
Orbital period
94.46 mins
BSTAR
0.00029917
Loading maneuver chart data...
Computing Atmospheric mass density...
Loading historical data...
Loading historical data...
Loading historical data...
Loading historical data...
Loading historical data...
Loading historical data...
Loading historical data...

Documentation

Showing up to 5 results
|